Погода в Бехтееве

Россия / Смоленская область     55°46′45″N   33°58′26″E
темп.,
°C
ветер,
м/с
пор.,
м/с
влажн.,
%
обл.,
%
осадки,
мм/ч
давл.,
гПа
погр.,
м
21 января, пт
пт2100:00−2ююз61290100 0.3 996899
03:00−3ю51194100 0.4 996863
06:00−3ююв51295100 0.3 994831
09:00−7ю411925 0.5 995281
12:00−6ююв4108926 0.0 994537
15:00−5ююв5991100 0.0 994528
18:00−7юв41094100 0.1 994397
21:00−6вюв4996100 0.6 994386
22 января, сб
сб2200:00−7всв4796100 0.8 996299
03:00−8всв3796100 1.4 997263
06:00−9ссв479688 0.3 999208
09:00−11ссв489686 0.5 1002177
12:00−9ссв379589 0.1 1005243
15:00−7ссв379592 0.3 1007384
18:00−9с389689 0.2 1010227
21:00−10ссв3896100 0.4 1012176
23 января, вс
вс2300:00−10ссв379693 0.2 1015188
03:00−12св3698100 0.3 1018103
06:00−13св369793 0.1 1021113
09:00−16ссв2210087 0.2 102535
12:00−11всв239787 0.0 102897
15:00−9с129519 0.0 103085
18:00−16ссв1110071 0.0 10339
21:00−18св1110097 0.0 10359
24 января, пн
пн2400:00−19сз00100100 0.0 10379
03:00−20сз1110098 0.0 10389
06:00−20ю1110099 0.0 10389
09:00−21сз1110099 0.0 10399
12:00−12ю119571 0.0 103869
15:00−9ю229514 0.0 103782
18:00−16юз229966 0.0 10379
21:00−17ююз2310094 0.0 103643
25 января, вт
вт2500:00−16юз3710089 0.0 103583
03:00−17юз3810090 0.0 1033101
06:00−16ююз4119992 0.0 1031165
09:00−16юз4129645 0.0 1029190
12:00−11юз5148958 0.0 1026293
15:00−8ююз51486100 0.0 1023398
18:00−9ююз6139286 0.0 1021342
21:00−8юз41095100 0.2 1021293